User: anonymous
Location: Fort Frances
(48.6170°N, 93.4170°W)
Time: 16:53:01
(UTC-05:00)
Language:

Iridium 53 - Orbit

View from above orbital plane
View from above orbital plane
View from above satellite
View from above satellite

Ground track
Ground track

The orbit data is extracted from the following two-line orbital elements,

1 25173U 98010E   14262.34426075  .00000708  00000-0  24569-3 0  9435
2 25173 086.3964 049.1038 0002120 110.7699 310.4135 14.34214610868172
Epoch (UTC): 19 September 2014 08:15:44
Eccentricity: 0.0002120
inclination: 86.3964°
perigee height: 776 km
apogee height: 779 km
right ascension of ascending node: 49.1038°
argument of perigee: 110.7699°
revolutions per day: 14.34214610
mean anomaly at epoch: 310.4135°
orbit number at epoch: 86817

The dashed part of the orbit path shows where the satellite is in the earth's shadow,  

DLR